This is the latest recevied weather packets stored in our database for station/object SP9MUF-14. If no packets are shown the sender has not sent any weather packets the latest 10 day(s).
| Time | Temp. | Humidity | Pressure | Rain* | Wind** | Luminosity | Snow |
|---|---|---|---|---|---|---|---|
| 1788195152 | 25° C | 61% | 1013.4 hPa | 0 mm | - | 26 W/m² | - |
| 1788194849 | 25° C | 59% | 1013.4 hPa | 0 mm | - | 32 W/m² | - |
| 1788194548 | 25.56° C | 57% | 1013.3 hPa | 0 mm | - | 34 W/m² | - |
| 1788194246 | 25.56° C | 59% | 1013.3 hPa | 0 mm | - | 40 W/m² | - |
| 1788193945 | 25.56° C | 57% | 1013.1 hPa | 0 mm | - | 44 W/m² | - |
| 1788193641 | 25° C | 58% | 1013.1 hPa | 0 mm | - | 43 W/m² | - |
| 1788193339 | 23.89° C | 60% | 1013.2 hPa | 0 mm | - | 45 W/m² | - |
| 1788193037 | 23.89° C | 60% | 1010.6 hPa | 0 mm | - | 37 W/m² | - |
| 1788192433 | 25° C | 59% | 1013.1 hPa | 0 mm | - | 43 W/m² | - |
| 1788192131 | 25° C | 59% | 1013.2 hPa | 0 mm | - | 51 W/m² | - |
| 1788191828 | 25° C | 58% | 1013.2 hPa | 0 mm | - | 60 W/m² | - |
| 1788191525 | 25° C | 57% | 1013.2 hPa | 0 mm | - | 61 W/m² | - |
| 1788191223 | 25° C | 57% | 1013.2 hPa | 0 mm | - | 62 W/m² | - |
| 1788190618 | 25.56° C | 55% | 1013.1 hPa | 0 mm | - | 102 W/m² | - |
| 1788190316 | 25.56° C | 56% | 1013.1 hPa | 0 mm | - | 120 W/m² | - |
| 1788190014 | 25.56° C | 56% | 1013 hPa | 0 mm | - | 117 W/m² | - |
| 1788189712 | 25° C | 57% | 1013 hPa | 0 mm | - | 168 W/m² | - |
| 1788188203 | 25° C | 60% | 1013 hPa | 0 mm | - | 82 W/m² | - |
| 1788187899 | 25° C | 60% | 1013 hPa | 0 mm | - | 84 W/m² | - |
| 1788187597 | 25° C | 61% | 1013.1 hPa | 0 mm | - | 88 W/m² | - |
| 1788187295 | 25° C | 61% | 1013.1 hPa | 0 mm | - | 103 W/m² | - |
| 1788186993 | 25° C | 61% | 1013.3 hPa | 0 mm | - | 124 W/m² | - |
| 1788186691 | 25° C | 61% | 1013.2 hPa | 0 mm | - | 151 W/m² | - |
| 1788186087 | 25° C | 59% | 1013.2 hPa | 0 mm | - | 74 W/m² | - |
| 1788185180 | 25.56° C | 56% | 1013.1 hPa | 0 mm | - | 84 W/m² | - |
* Rain latest hour (hover to see other rain measurements)
** Current wind speed in m/s (hover to see current wind gust speed)